GW6990 Weather Reports


time (UTC)temp
F
wind
direction
speed
knots
gust
knots
rain 1hr
in
rain 24hr
in
rain mn
in
humidity
%
barometer
mb
20260510220206 82 224 1.7 2.6 0.00 0.01 0.01 62 1018.9
20260510215703 83 105 2.6 3.5 0.00 0.01 0.01 61 1019.0
20260510215201 83 242 1.7 2.6 0.00 0.01 0.01 60 1018.9
20260510214658 82 126 4.3 6.1 0.00 0.01 0.01 60 1019.1
20260510214155 82 202 1.7 2.6 0.00 0.01 0.01 62 1019.0
20260510213651 83 107 4.3 5.2 0.00 0.01 0.01 61 1019.0
20260510213148 83 127 3.5 5.2 0.00 0.01 0.01 61 1019.1
20260510212644 84 130 2.6 3.5 0.00 0.01 0.01 60 1018.8
20260510212142 84 256 2.6 2.6 0.00 0.01 0.01 61 1019.0
20260510211639 86 200 1.7 2.6 0.00 0.01 0.01 58 1019.0
20260510211138 86 242 1.7 1.7 0.00 0.01 0.01 58 1018.9
20260510210636 85 235 1.7 1.7 0.00 0.01 0.01 60 1018.8
20260510210131 85 68 0.9 1.7 0.00 0.01 0.01 60 1018.8
20260510205630 87 185 2.6 3.5 0.00 0.01 0.01 57 1018.9
20260510205126 87 156 1.7 1.7 0.00 0.01 0.01 57 1018.7
20260510204622 86 86 0.9 1.7 0.00 0.01 0.01 62 1018.8
20260510204119 87 108 2.6 2.6 0.00 0.01 0.01 58 1019.0
20260510203616 86 148 2.6 2.6 0.00 0.01 0.01 58 1018.9
20260510203113 86 138 1.7 2.6 0.00 0.01 0.01 59 1018.9
20260510202612 85 200 1.7 2.6 0.00 0.01 0.01 61 1019.0
20260510202108 85 126 4.3 7.0 0.00 0.01 0.01 60 1018.9
20260510201606 86 124 3.5 5.2 0.00 0.01 0.01 59 1019.0
20260510201102 86 179 1.7 3.5 0.00 0.01 0.01 60 1019.1
20260510200558 85 109 1.7 1.7 0.00 0.01 0.01 60 1019.0
20260510200057 84 94 2.6 2.6 0.00 0.01 0.01 62 1019.1
20260510195554 84 143 0.9 0.9 0.00 0.01 0.01 62 1019.1
20260510195049 84 151 3.5 5.2 0.00 0.01 0.01 61 1018.9
20260510194544 86 183 1.7 2.6 0.00 0.01 0.01 58 1019.3
20260510194041 86 120 1.7 2.6 0.00 0.01 0.01 55 1018.8
20260510193536 85 289 0.0 0.9 0.00 0.01 0.01 57 1019.0
20260510193032 85 274 3.5 3.5 0.00 0.01 0.01 56 1019.3
20260510192531 84 250 0.0 0.9 0.00 0.01 0.01 62 1019.2
20260510192028 84 129 3.5 5.2 0.00 0.01 0.01 58 1019.1
20260510191524 85 281 2.6 3.5 0.00 0.01 0.01 61 1019.3
20260510191021 84 321 0.9 0.9 0.00 0.01 0.01 59 1019.5
20260510190519 83 189 0.9 0.9 0.00 0.01 0.01 60 1019.5
20260510190016 83 210 1.7 1.7 0.00 0.01 0.01 61 1019.7
20260510185512 84 229 0.0 0.9 0.00 0.01 0.01 62 1019.8
20260510185010 84 278 0.9 1.7 0.00 0.01 0.01 61 1019.8
20260510184507 84 296 2.6 3.5 0.00 0.01 0.01 59 1019.9
20260510184002 83 263 0.0 0.9 0.00 0.01 0.01 61 1019.8
20260510183458 84 264 1.7 1.7 0.00 0.01 0.01 59 1019.9
20260510182953 84 328 0.9 0.9 0.00 0.01 0.01 60 1020.1
20260510182450 85 286 2.6 2.6 0.00 0.01 0.01 57 1020.0
20260510181945 85 273 0.0 0.9 0.00 0.01 0.01 60 1019.9
20260510181444 84 310 2.6 2.6 0.00 0.01 0.01 60 1020.2
20260510180939 85 310 4.3 5.2 0.00 0.01 0.01 57 1020.1
20260510180436 85 255 4.3 6.1 0.00 0.01 0.01 57 1020.0
20260510175933 84 226 1.7 1.7 0.00 0.01 0.01 61 1019.9
20260510175429 84 161 0.9 1.7 0.00 0.01 0.01 60 1020.0
20260510174925 84 234 1.7 2.6 0.00 0.01 0.01 65 1020.1
20260510174424 84 222 2.6 3.5 0.00 0.01 0.01 60 1020.0
20260510173919 83 277 3.5 3.5 0.00 0.01 0.01 60 1020.2
20260510173415 82 268 4.3 5.2 0.00 0.01 0.01 62 1020.2
20260510172912 82 226 0.9 1.7 0.00 0.01 0.01 63 1020.3
20260510172408 83 280 2.6 2.6 0.00 0.01 0.01 63 1020.4
20260510171904 83 116 0.9 1.7 0.00 0.01 0.01 62 1020.2
20260510171401 85 83 1.7 1.7 0.00 0.01 0.01 57 1020.5
20260510170858 84 244 0.9 0.9 0.00 0.01 0.01 62 1020.5
20260510170355 84 240 0.9 0.9 0.00 0.01 0.01 62 1020.6
20260510165850 83 66 0.9 1.7 0.00 0.01 0.01 66 1020.6
20260510165347 82 167 0.9 0.9 0.00 0.01 0.01 62 1020.8
20260510164844 81 312 0.0 0.9 0.00 0.01 0.01 65 1020.8
20260510164341 81 98 1.7 1.7 0.00 0.01 0.01 63 1020.8
20260510163841 82 9 1.7 1.7 0.00 0.01 0.01 63 1020.7
20260510163338 82 113 1.7 1.7 0.00 0.01 0.01 63 1020.4
20260510162837 81 136 2.6 3.5 0.00 0.01 0.01 64 1020.4
20260510162335 82 99 1.7 1.7 0.00 0.01 0.01 65 1020.5
20260510161830 83 115 2.6 2.6 0.00 0.01 0.01 63 1020.6
20260510161327 82 209 0.0 0.0 0.00 0.01 0.01 64 1020.6
20260510160824 81 112 0.0 0.0 0.00 0.01 0.01 68 1020.6
20260510160321 80 267 0.9 1.7 0.00 0.01 0.01 66 1020.7
20260510155820 81 353 0.9 0.9 0.00 0.01 0.01 66 1020.6
20260510155318 82 221 0.9 0.9 0.00 0.01 0.01 67 1020.7
20260510154814 81 334 0.9 1.7 0.00 0.01 0.01 66 1020.6
20260510154310 80 56 1.7 1.7 0.00 0.01 0.01 67 1020.6
20260510153809 80 315 1.7 1.7 0.00 0.01 0.01 66 1020.7
20260510153306 80 136 3.5 3.5 0.00 0.01 0.01 69 1020.6
20260510152803 80 207 2.6 2.6 0.00 0.01 0.01 68 1020.8
20260510152259 81 130 3.5 3.5 0.00 0.01 0.01 65 1020.9
20260510151756 80 221 0.9 0.9 0.00 0.01 0.01 68 1020.8
20260510151255 80 269 0.0 0.0 0.00 0.01 0.01 70 1020.7
20260510150749 80 100 0.9 0.9 0.00 0.01 0.01 71 1020.8
20260510150246 79 238 0.0 0.9 0.00 0.01 0.01 73 1020.7
20260510145742 79 133 1.7 1.7 0.00 0.01 0.01 72 1020.8
20260510145239 79 279 1.7 2.6 0.00 0.01 0.01 72 1021.0
20260510144734 79 49 0.0 0.0 0.00 0.01 0.01 72 1020.9
20260510144232 78 75 0.0 0.9 0.00 0.01 0.01 72 1021.2
20260510143726 77 145 0.9 0.9 0.00 0.01 0.01 77 1021.0
20260510143223 78 116 0.9 0.9 0.00 0.01 0.01 74 1021.0
20260510142719 78 23 0.0 0.0 0.00 0.01 0.01 77 1021.0
20260510142216 77 295 0.0 0.0 0.00 0.01 0.01 77 1021.0
20260510141713 76 107 0.0 0.0 0.00 0.01 0.01 78 1020.9
20260510141212 75 25 0.9 0.9 0.00 0.01 0.01 82 1021.0
20260510140708 75 126 0.9 1.7 0.00 0.01 0.01 79 1020.8
20260510140207 75 86 1.7 1.7 0.00 0.01 0.01 81 1020.9
20260510135702 74 201 0.9 0.9 0.00 0.01 0.01 83 1020.7
20260510135158 74 272 0.9 0.9 0.00 0.01 0.01 84 1020.7
20260510134656 74 8 0.0 0.9 0.00 0.01 0.01 83 1020.7
20260510134153 73 37 0.9 1.7 0.00 0.01 0.01 85 1020.5
20260510133649 73 146 0.9 1.7 0.00 0.01 0.01 86 1020.6
20260510133144 72 115 1.7 1.7 0.00 0.01 0.01 88 1020.5
20260510132641 72 132 0.9 0.9 0.00 0.01 0.01 89 1020.5
20260510132138 72 113 3.5 3.5 0.00 0.01 0.01 87 1020.5
20260510131636 71 24 1.7 1.7 0.00 0.01 0.01 91 1020.5
20260510131133 71 139 0.9 1.7 0.00 0.01 0.01 93 1020.6
20260510130630 70 39 0.0 0.9 0.00 0.01 0.01 96 1020.5
20260510130127 69 75 0.9 0.9 0.00 0.01 0.01 97 1020.3
20260510125623 69 79 0.9 0.9 0.00 0.01 0.01 98 1020.4
20260510125119 68 119 0.0 0.0 0.00 0.01 0.01 99 1020.4
20260510124616 68 286 0.0 0.9 0.00 0.01 0.01 99 1020.2
20260510124113 68 151 0.9 0.9 0.00 0.01 0.01 99 1020.2
20260510123609 67 115 0.9 0.9 0.00 0.01 0.01 99 1020.4
20260510123105 68 66 0.0 0.0 0.00 0.01 0.01 99 1020.2
20260510122601 67 339 0.0 0.0 0.00 0.01 0.01 99 1020.1
20260510122057 66 2 0.0 0.0 0.00 0.01 0.01 99 1019.8
20260510121554 66 110 0.0 0.9 0.00 0.01 0.01 99 1019.7
20260510121051 66 109 0.9 0.9 0.00 0.01 0.01 99 1019.8
20260510120549 66 111 0.0 0.0 0.00 0.01 0.01 99 1019.6
20260510120044 65 12 0.0 0.0 0.07 0.01 0.01 99 1019.6
20260510115541 65 14 0.0 0.0 0.07 0.01 0.01 99 1019.5
20260510115038 65 93 0.0 0.9 0.00 0.00 0.00 99 1019.5
20260510114534 65 118 0.0 0.0 0.00 0.00 0.00 99 1019.5
20260510114030 64 94 0.9 0.9 0.00 0.00 0.00 99 1019.5
20260510113525 64 113 0.0 0.0 0.00 0.00 0.00 99 1019.4
20260510113024 64 5 0.0 0.0 0.00 0.00 0.00 99 1019.4
20260510112520 64 184 0.0 0.0 0.00 0.00 0.00 99 1019.2
20260510112016 64 236 0.0 0.0 0.00 0.00 0.00 99 1019.2
20260510111513 64 258 0.0 0.0 0.00 0.00 0.00 99 1019.2
20260510111009 64 258 0.9 0.9 0.00 0.00 0.00 99 1019.2
20260510110505 64 267 0.0 0.0 0.00 0.00 0.00 99 1019.1
20260510110001 64 280 0.0 0.0 0.00 0.00 0.00 99 1018.9
20260510105456 64 356 0.0 0.0 0.00 0.00 0.00 99 1018.9
20260510104952 65 353 0.0 0.0 0.00 0.00 0.00 99 1018.6
20260510104448 65 72 0.9 0.9 0.00 0.00 0.00 99 1018.7
20260510103945 65 136 0.9 0.9 0.00 0.00 0.00 99 1018.6
20260510103443 65 294 0.0 0.0 0.00 0.00 0.00 99 1018.3
20260510102938 65 196 0.0 0.0 0.00 0.00 0.00 99 1018.5
20260510102434 65 165 0.0 0.0 0.00 0.00 0.00 99 1018.4
20260510101931 65 188 0.0 0.0 0.00 0.00 0.00 99 1018.3
20260510101429 65 151 0.9 0.9 0.00 0.00 0.00 99 1018.2
20260510100926 65 286 0.0 0.0 0.00 0.00 0.00 99 1018.0
20260510100423 65 187 0.0 0.9 0.00 0.00 0.00 99 1017.9
20260510095919 65 244 0.0 0.0 0.00 0.00 0.00 99 1018.0
20260510095414 65 244 0.0 0.0 0.00 0.00 0.00 99 1018.1
20260510094914 65 319 1.7 1.7 0.00 0.00 0.00 99 1017.9
20260510094409 65 257 0.0 0.0 0.00 0.00 0.00 99 1017.9
20260510093905 65 288 0.0 0.0 0.00 0.00 0.00 99 1017.8
20260510093401 65 259 0.0 0.0 0.00 0.00 0.00 99 1017.9
20260510092857 65 258 0.0 0.0 0.00 0.00 0.00 99 1017.7
20260510092354 65 263 0.9 0.9 0.00 0.00 0.00 99 1017.9
20260510091849 66 261 0.0 0.0 0.00 0.00 0.00 99 1017.9
20260510091347 66 280 0.9 0.9 0.00 0.00 0.00 99 1017.9
20260510090843 66 261 0.0 0.0 0.00 0.00 0.00 99 1017.6
20260510090339 66 249 0.9 0.9 0.00 0.00 0.00 99 1017.6
20260510085835 66 266 0.9 0.9 0.00 0.00 0.00 99 1017.4
20260510085330 66 281 0.9 1.7 0.00 0.00 0.00 99 1017.4
20260510084826 66 259 0.0 0.0 0.00 0.00 0.00 99 1017.3
20260510084323 66 280 0.0 0.0 0.00 0.00 0.00 99 1017.5
20260510083820 66 255 0.0 0.0 0.00 0.00 0.00 99 1017.2
20260510083317 66 258 0.0 0.0 0.00 0.00 0.00 99 1017.1
20260510082812 66 287 0.0 0.0 0.00 0.00 0.00 99 1017.2
20260510082310 66 286 0.0 0.0 0.00 0.00 0.00 99 1017.0
20260510081809 66 275 0.0 0.0 0.00 0.00 0.00 99 1017.1
20260510081304 66 297 0.0 0.0 0.00 0.00 0.00 99 1017.0
20260510080800 66 338 0.0 0.0 0.00 0.00 0.00 99 1017.0
20260510080255 66 297 0.0 0.0 0.00 0.00 0.00 99 1017.0
20260510075753 66 287 0.0 0.0 0.00 0.00 0.00 99 1017.0
20260510075250 67 288 0.0 0.0 0.00 0.00 0.00 99 1016.8
20260510074747 67 78 0.0 0.0 0.00 0.00 0.00 99 1016.7
20260510074243 67 301 0.0 0.0 0.00 0.00 0.00 99 1016.8
20260510073739 67 64 0.0 0.0 0.00 0.00 0.00 99 1016.6
20260510073236 67 156 0.0 0.0 0.00 0.00 0.00 99 1016.6
20260510072731 67 193 0.0 0.0 0.00 0.00 0.00 99 1016.5
20260510072228 67 132 0.0 0.9 0.00 0.00 0.00 99 1016.6
20260510071725 67 97 0.9 0.9 0.00 0.00 0.00 99 1016.6
20260510071222 67 110 0.9 0.9 0.00 0.00 0.00 99 1016.5
20260510070720 67 111 0.9 0.9 0.00 0.00 0.00 99 1016.8
20260510070217 67 111 0.0 0.0 0.00 0.00 0.00 98 1016.6
20260510065712 67 125 0.9 0.9 0.00 0.00 0.00 98 1016.9
20260510065208 67 176 0.9 0.9 0.00 0.00 0.00 98 1016.8
20260510064705 67 275 0.0 0.0 0.00 0.00 0.00 98 1016.7
20260510064203 67 275 0.0 0.0 0.00 0.00 0.00 98 1017.0
20260510063659 67 275 0.0 0.0 0.00 0.00 0.00 98 1017.0
20260510063155 66 275 0.0 0.0 0.00 0.00 0.00 98 1017.1
20260510062652 66 275 0.0 0.0 0.00 0.00 0.00 98 1017.1
20260510062148 66 275 0.0 0.0 0.00 0.00 0.00 98 1017.1
20260510061643 66 275 0.0 0.0 0.00 0.00 0.00 98 1017.2
20260510061141 67 275 0.0 0.0 0.00 0.00 0.00 98 1017.0
20260510060637 67 271 0.0 0.0 0.00 0.00 0.00 98 1017.2
20260510060134 67 271 0.0 0.0 0.00 0.00 0.00 98 1017.4
20260510055630 67 245 0.0 0.0 0.00 0.00 0.00 98 1017.4
20260510055129 67 245 0.0 0.0 0.00 0.00 0.00 98 1017.4
20260510054623 67 245 0.9 0.9 0.00 0.00 0.00 98 1017.6
20260510054119 68 163 0.0 0.0 0.00 0.00 0.00 98 1017.3
20260510053618 68 163 0.0 0.0 0.00 0.00 0.00 98 1017.2
20260510053115 68 163 0.0 0.0 0.00 0.00 0.00 98 1017.3
20260510052611 68 95 0.0 0.9 0.00 0.00 0.00 98 1016.7
20260510052108 68 101 0.9 0.9 0.00 0.00 0.00 98 1016.8
20260510051603 68 148 0.9 0.9 0.00 0.00 0.00 98 1017.3
20260510051100 68 176 0.0 0.0 0.00 0.00 0.00 98 1017.3
20260510050557 68 176 0.9 0.9 0.00 0.00 0.00 98 1017.1
20260510050054 68 228 0.0 0.0 0.00 1.23 1.23 98 1017.4
20260510045552 68 250 0.0 0.0 0.00 1.23 1.23 98 1017.5
20260510045047 68 235 0.0 0.0 0.00 1.23 1.23 98 1017.8
20260510044544 68 229 0.0 0.0 0.00 1.23 1.23 98 1017.7
20260510044042 68 230 0.0 0.0 0.00 1.23 1.23 98 1017.8
20260510043537 68 135 0.0 0.0 0.00 1.23 1.23 98 1017.7
20260510043033 68 135 0.0 0.0 0.00 1.23 1.23 98 1018.0
20260510042527 68 135 0.0 0.0 0.00 1.23 1.23 98 1017.8
20260510042028 68 142 0.9 0.9 0.00 1.23 1.23 98 1017.9
20260510041525 68 136 0.0 0.0 0.00 1.23 1.23 98 1018.0
20260510041023 68 111 0.0 0.9 0.00 1.23 1.23 98 1018.1
20260510040519 68 112 0.0 0.9 0.00 1.23 1.23 98 1018.0
20260510040015 68 201 0.0 0.0 0.00 1.23 1.23 98 1018.3
20260510035512 68 122 0.0 0.0 0.00 1.23 1.23 98 1018.0
20260510035011 68 272 0.0 0.0 0.00 1.23 1.23 98 1018.2
20260510034510 68 272 0.0 0.0 0.00 1.23 1.23 98 1018.2
20260510034006 68 270 0.0 0.0 0.00 1.23 1.23 98 1018.1
20260510033502 68 257 0.0 0.0 0.00 1.23 1.23 98 1018.0
20260510033000 68 263 0.9 0.9 0.00 1.23 1.23 98 1018.3
20260510032457 68 240 0.0 0.9 0.00 1.23 1.23 98 1018.1
20260510031956 68 180 0.0 0.0 0.00 1.23 1.23 98 1017.6
20260510031452 68 113 0.9 0.9 0.00 1.23 1.23 98 1017.5
20260510030948 68 37 0.9 0.9 0.00 1.23 1.23 98 1017.4
20260510030443 68 74 0.0 0.9 0.00 1.23 1.23 98 1017.4
20260510025942 68 91 0.0 0.0 0.00 1.23 1.23 98 1017.6
20260510025439 68 300 0.0 0.0 0.00 1.23 1.23 98 1017.7
20260510024936 68 268 0.0 0.0 0.00 1.23 1.23 98 1017.6
20260510024433 68 10 0.9 0.9 0.00 1.23 1.23 98 1017.5
20260510023928 68 285 0.0 0.0 0.00 1.23 1.23 98 1017.8
20260510023425 68 340 0.0 0.0 0.00 1.23 1.23 98 1017.5
20260510022922 68 92 0.9 0.9 0.00 1.23 1.23 98 1017.6
20260510022421 68 283 0.0 0.0 0.00 1.23 1.23 98 1017.6
20260510021920 68 113 0.0 0.0 0.00 1.23 1.23 98 1017.6
20260510021419 68 148 0.0 0.0 0.00 1.23 1.23 98 1017.5
20260510020915 68 117 0.9 0.9 0.00 1.23 1.23 98 1017.4
20260510020410 68 215 0.0 0.0 0.00 1.23 1.23 98 1017.7
20260510015906 68 236 0.0 0.0 0.00 1.23 1.23 98 1017.7
20260510015402 68 277 0.0 0.0 0.00 1.23 1.23 97 1017.8
20260510014857 68 278 0.0 0.0 0.00 1.23 1.23 97 1017.7
20260510014355 68 286 0.0 0.0 0.00 1.23 1.23 97 1017.9
20260510013851 68 281 0.0 0.0 0.00 1.23 1.23 97 1017.8
20260510013346 68 265 0.0 0.0 0.07 1.23 1.23 97 1017.5
20260510012841 68 302 0.0 0.0 0.07 1.23 1.23 97 1017.4
20260510012341 68 106 0.0 0.0 0.00 1.22 1.22 97 1017.5
20260510011836 68 271 0.0 0.0 0.00 1.22 1.22 97 1017.9
20260510011332 68 258 0.9 0.9 0.00 1.22 1.22 97 1018.1
20260510010829 68 280 1.7 1.7 0.00 1.22 1.22 97 1018.0
20260510010326 68 296 0.9 0.9 0.00 1.22 1.22 97 1017.6
20260510005822 68 272 0.9 1.7 0.00 1.22 1.22 97 1017.2
20260510005319 68 279 0.0 0.0 0.00 1.22 1.22 97 1017.0
20260510004817 68 310 0.0 0.0 0.00 1.22 1.22 97 1016.7
20260510004314 68 280 0.0 0.0 0.00 1.22 1.22 97 1016.8
20260510003811 68 280 0.0 0.0 0.00 1.22 1.22 96 1017.1
20260510003308 68 279 0.0 0.0 0.00 1.22 1.22 96 1017.0
20260510002807 69 276 0.0 0.0 0.00 1.22 1.22 96 1016.7
20260510002306 69 270 0.0 0.0 0.00 1.22 1.22 96 1016.6
20260510001801 69 270 0.0 0.0 0.00 1.22 1.22 96 1016.6
20260510001259 69 270 0.0 0.0 0.00 1.22 1.22 96 1016.3
20260510000754 69 325 0.0 0.0 0.00 1.22 1.22 96 1016.3
20260510000252 69 330 0.0 0.0 0.05 1.22 1.22 96 1016.3
20260509235749 69 328 0.0 0.0 0.05 1.22 1.22 96 1016.3
20260509235246 69 206 0.0 0.0 0.00 1.21 1.21 96 1016.3
20260509234741 69 58 0.9 0.9 0.00 1.21 1.21 95 1016.4
20260509234238 69 333 0.0 0.0 0.00 1.21 1.21 95 1016.5
20260509233737 69 218 0.0 0.0 0.00 1.21 1.21 95 1016.6
20260509233234 69 139 0.0 0.0 0.00 1.21 1.21 95 1016.8
20260509232730 69 178 0.9 0.9 0.00 1.21 1.21 95 1016.7
20260509232227 69 155 0.0 0.9 0.07 1.21 1.21 95 1016.6
20260509231723 69 187 0.0 0.0 0.07 1.21 1.21 95 1016.7
20260509231221 69 307 0.0 0.0 0.00 1.20 1.20 94 1016.8
20260509230718 69 256 0.0 0.0 0.05 1.20 1.20 94 1016.7
20260509230215 69 297 0.9 0.9 0.05 1.20 1.20 94 1016.5
20260509225710 70 226 0.9 0.9 0.00 1.19 1.19 94 1016.6
20260509225206 70 126 0.0 0.0 0.00 1.19 1.19 94 1016.5
20260509224702 70 128 1.7 1.7 0.00 1.19 1.19 93 1016.5
20260509224159 70 271 0.0 0.0 0.00 1.19 1.19 93 1016.6
20260509223656 70 177 0.9 1.7 0.00 1.19 1.19 93 1016.3
20260509223153 70 103 0.0 0.0 0.00 1.19 1.19 93 1016.5
20260509222650 70 260 0.0 0.0 0.00 1.19 1.19 93 1016.5
20260509222145 70 297 0.9 0.9 0.00 1.19 1.19 93 1016.7
20260509221642 70 306 0.0 0.0 0.00 1.19 1.19 92 1016.6
20260509221137 70 155 0.0 0.9 0.00 1.19 1.19 93 1016.3